This demonstration page uses our WeatherBlox Daily Observations layout. Learn more.

Left ArrowRight Arrow

39.95238, -75.16362

Hourly Observations for February 24, 2017

Temp ( °F °C ) Dew Point ( °F °C ) Humidity (%) Winds ( mph kmh ) Pressure ( in mb ) Visibility ( mi km ) Precip ( " mm )
12:54 am 00:54 Mostly Clear 56 13.3 50 10 81 81 S 7 11 29.92 1013 10 16 0.00 0.00
1:54 am 01:54 Clear 55 12.8 50 10 83 83 SSW 7 11 29.92 1013 10 16 0.00 0.00
2:54 am 02:54 Clear 54 12.2 50 10 87 87 S 7 11 29.92 1013 10 16 0.00 0.00
3:54 am 03:54 Mostly Clear 53 11.7 50 10 89 89 WSW 5 7 29.92 1013 10 16 0.00 0.00
4:54 am 04:54 Partly Cloudy 52 11.1 49 9.4 89 89 S 7 11 29.93 1013 10 16 0.00 0.00
5:54 am 05:54 Mostly Cloudy 54 12.2 50 10 87 87 SSW 6 9 29.93 1014 10 16 0.00 0.00
6:54 am 06:54 Mostly Sunny 53 11.7 50 10 89 89 SSW 6 9 29.93 1014 10 16 0.00 0.00
7:54 am 07:54 Mostly Sunny 56 13.3 51 10.6 84 84 S 5 7 29.94 1014 10 16 0.00 0.00
8:54 am 08:54 Partly Cloudy 60 15.6 53 11.7 78 78 SSW 7 11 29.95 1014 10 16 0.00 0.00
9:54 am 09:54 Partly Cloudy 65 18.3 54 12.2 68 68 SW 12 19 29.95 1014 10 16 0.00 0.00
10:54 am 10:54 Partly Cloudy 70 21.1 54 12.2 57 57 S 9 15 29.94 1014 10 16 0.00 0.00
11:54 am 11:54 Mostly Sunny 72 22.2 54 12.2 53 53 SSW 14 22 29.92 1013 10 16 0.00 0.00
12:54 pm 12:54 Partly Cloudy 72 22.2 54 12.2 53 53 SSW 12 19 29.88 1012 10 16 0.00 0.00
1:54 pm 13:54 Mostly Cloudy 72 22.2 54 12.2 53 53 S 12 19 29.86 1011 10 16 0.00 0.00
2:54 pm 14:54 Mostly Cloudy 74 23.3 54 12.2 50 50 S 12 19 29.86 1011 10 16 0.00 0.00
3:54 pm 15:54 Mostly Cloudy 71 21.7 54 12.2 55 55 S 9 15 29.85 1011 10 16 0.00 0.00
4:54 pm 16:54 Mostly Cloudy 70 21.1 54 12.2 57 57 S 10 17 29.85 1011 10 16 0.00 0.00
5:54 pm 17:54 Partly Cloudy 67 19.4 54 12.2 63 63 SSE 14 22 29.85 1011 10 16 0.00 0.00
6:54 pm 18:54 Mostly Clear 64 17.8 55 12.8 73 73 SSE 8 13 29.84 1011 10 16 0.00 0.00
7:54 pm 19:54 Mostly Clear 63 17.2 56 13.3 78 78 SSE 9 15 29.84 1011 10 16 0.00 0.00
8:54 pm 20:54 Partly Cloudy 62 16.7 57 13.9 84 84 S 15 24 29.84 1011 10 16 0.00 0.00
9:54 pm 21:54 Mostly Clear 60 15.6 56 13.3 86 86 SSW 9 15 29.85 1011 10 16 0.00 0.00
10:54 pm 22:54 Mostly Clear 59 15 56 13.3 90 90 S 8 13 29.84 1011 10 16 0.00 0.00
11:54 pm 23:54 Mostly Cloudy 58 14.4 55 12.8 90 90 S 7 11 29.83 1010 10 16 0.00 0.00

Powered by AerisWeather